#timestamp,LO_Frequency,Hit,StdDev 
1512118815.1,286046998.1,N
1512118816.0,286046998.1,N
1512118835.8,286046998.9,N
1512118855.7,286046998.7,N
1512118875.5,286047000.6,N
1512118895.3,286046999.9,N
1512118915.2,286047002.5,N
1512118935.0,286047002.5,N
1512118935.9,286047002.5,N
1512118955.8,286047003.9,N
1512118975.6,286047001.7,N
1512118995.4,286047003.6,N
1512119015.3,286047003.8,N
1512119035.1,286047004.4,N
1512119055.9,286047004.2,N
1512119075.7,286047004.4,N
1512119095.5,286047002.1,N
1512119115.4,286047001.1,N
1512119135.2,286047000.5,N
1512119155.0,286047000.2,N
1512119155.9,286047000.2,N
1512119175.8,286047002.6,N
1512119195.6,286047002.1,N
1512119215.5,286047000.2,N
1512119235.3,286047000.2,N
1512119255.1,286047001.2,N
1512119275.9,286047000.0,N
1512119295.7,286047000.2,N
1512119315.6,286047002.1,N
1512119335.4,286047002.5,N
1512119355.2,286047000.1,N
1512119375.1,286047001.4,N
1512119376.0,286047001.4,N
1512119395.8,286047001.5,N
1512119415.6,286047003.9,N
1512119435.5,286047004.1,N
1512119455.3,286047002.0,N
1512119475.2,286047002.5,N
1512119495.9,286047001.0,N
1512119515.7,286047001.0,N
1512119535.6,286047001.7,N
1512119555.4,286047001.6,N
1512119575.2,286047002.1,N
1512119595.1,286047000.4,N
1512119596.0,286047000.4,N
1512119615.8,286047002.8,N
1512119635.7,286047001.5,N
1512119655.5,286047002.5,N
1512119675.3,286047004.3,Y
1512119695.2,286047000.5,P
1512119715.0,286047000.7,N
1512119715.9,286047000.7,N
1512119735.8,286046998.6,Y
1512119755.6,286046997.0,P
1512119775.4,286046998.3,N
1512119795.3,286047001.1,N
1512119815.1,286046998.1,N
1512119835.8,286047000.3,N
1512119855.7,286047000.9,N
1512119875.5,286047000.2,N
1512119895.4,286047000.0,N
1512119915.2,286047001.1,N
1512119935.0,286046998.4,N
1512119935.9,286046998.4,N
1512119955.8,286047000.7,N
1512119975.6,286047000.0,N
1512119995.4,286046998.9,N
1512120015.3,286046998.7,N
1512120035.1,286047000.8,N
1512120055.9,286047000.5,N
1512120075.7,286047000.6,N
1512120095.5,286046998.1,N
1512120115.4,286046998.7,N
1512120135.2,286046998.6,N
1512120155.0,286047001.0,N
1512120155.9,286047001.0,N
1512120175.8,286047002.8,N
1512120195.6,286047000.2,N
1512120215.5,286047000.7,N
1512120235.3,286047000.5,N
1512120255.1,286046998.1,N
1512120275.9,286046998.5,N
1512120295.7,286046998.4,N
1512120315.5,286046999.0,N
1512120335.4,286046999.4,N
1512120355.2,286046996.5,N
1512120375.1,286046998.5,N
1512120376.0,286046998.5,N
1512120395.8,286046998.1,N
1512120415.6,286047001.2,N
1512120435.5,286047001.0,N
1512120455.3,286047001.0,N
1512120475.1,286047001.2,N
1512120495.9,286046998.1,N
1512120515.7,286046998.2,N
1512120535.6,286046998.9,N
1512120555.4,286046998.1,N
1512120575.2,286046998.3,N
1512120595.1,286047001.0,N
1512120596.0,286047001.0,N
1512120615.8,286047000.8,N
1512120635.7,286047000.5,N
1512120655.5,286047002.4,N
1512120675.3,286046999.9,N
1512120695.2,286047000.6,N
1512120715.0,286047001.1,N
1512120715.9,286047001.1,N
1512120735.7,286047001.0,N
1512120755.6,286047000.4,N
1512120775.4,286046998.6,N
1512120795.3,286046998.2,N
1512120815.1,286047000.3,N
1512120816.0,286047000.3,N
1512120835.8,286047002.7,N
1512120855.7,286047002.6,N
1512120875.5,286047002.0,N
1512120895.4,286047004.4,Y
1512120915.2,286047002.4,P
1512120935.0,286047002.4,N
1512120935.9,286047002.4,N
1512120955.8,286047000.3,N
1512120975.6,286046998.3,N
1512120995.5,286046998.1,N
1512121015.3,286047001.0,N
1512121035.1,286046999.8,N
1512121055.9,286047002.2,N
1512121075.7,286047002.1,N
1512121095.5,286047002.3,N
1512121115.4,286047000.6,N
1512121135.2,286047001.0,N
1512121155.1,286047002.3,N
1512121156.0,286047002.3,N
1512121175.8,286047000.0,N
1512121195.6,286047000.1,N
1512121215.5,286047001.8,N
1512121235.3,286047001.4,N
1512121255.2,286047004.3,Y
1512121275.9,286047001.0,P
1512121295.7,286047000.8,P
1512121315.6,286047000.9,P
1512121335.4,286046999.8,N
1512121355.3,286047000.8,N
1512121375.1,286046998.2,Y
1512121376.0,286046998.2,P
1512121395.8,286046999.4,N
1512121415.7,286046996.5,P
1512121435.5,286046998.4,N
1512121455.4,286046998.7,N
1512121475.2,286046998.3,N
1512121495.0,286047000.5,N
1512121495.9,286047000.5,N
1512121515.8,286047001.1,N
1512121535.6,286046997.0,N
1512121555.4,286046998.8,N
1512121575.3,286046998.2,N
1512121595.1,286047000.0,N
1512121615.9,286046999.4,N
1512121635.7,286046998.2,N
1512121655.5,286047001.0,N
1512121675.4,286047001.1,N
1512121695.2,286047000.9,N
1512121715.0,286046998.3,N
1512121715.9,286046998.3,N
1512121735.8,286046996.9,N
1512121755.6,286046999.0,N
1512121775.5,286046998.3,N
1512121795.3,286046998.8,N
1512121815.1,286046998.7,N
1512121835.9,286047001.1,N
1512121855.7,286046998.7,N
1512121875.6,286047001.2,N
1512121895.4,286046998.2,N
1512121915.2,286047000.8,N
1512121935.1,286046999.9,N
1512121936.0,286046999.9,N
1512121955.8,286047000.4,N
1512121975.6,286046999.4,N
1512121995.5,286046998.6,N
1512122015.3,286046998.7,N
1512122035.2,286046998.4,N
1512122055.9,286047000.8,N
1512122075.7,286046999.9,N
1512122095.6,286047001.0,N
1512122115.4,286047001.1,N
1512122135.3,286047000.8,N
1512122155.1,286047000.9,N
1512122156.0,286047000.9,N
1512122175.8,286047002.8,N
1512122195.7,286047000.8,N
1512122215.5,286046998.3,N
1512122235.3,286047000.6,N
1512122255.2,286047001.2,N
1512122275.0,286046998.1,N
1512122275.9,286046998.1,N
1512122295.8,286046999.1,N
1512122315.6,286046996.8,N
1512122335.4,286046998.9,N
1512122355.3,286046998.9,N
1512122375.1,286046999.3,N
1512122395.9,286046999.0,N
